Location: St. Louis
(38.6270°N, 90.1994°W)
Time: 00:06:44
(UTC-05:00)

OPS 7613 P/L 1 - Pass Details

Date: 08 July 2022
Orbit: 887 x 911 km, 70.0° (Epoch: 16 August)

Event Time Altitude Azimuth Distance (km) Brightness Sun altitude
Rises 04:15:25 0° 337° (NNW) 3,505 11.7 -14.5°
Reaches altitude 10° 04:17:55 10° 339° (NNW) 2,559 11.0 -14.2°
Maximum altitude 04:23:50 78° 65° (ENE) 910 8.5 -13.3°
Drops below altitude 10° 04:29:42 10° 152° (SSE) 2,540 10.5 -12.5°
Sets 04:32:10 0° 154° (SSE) 3,477 11.2 -12.1°
